Location: Kawakawa
(35.3830°S, 174.0670°E)
Time: 04:48:15
(UTC+13:00)

Envisat - Pass Details

Date: 01 December 2019
Orbit: 764 x 766 km, 98.1° (Epoch: 14 December)

Event Time Altitude Azimuth Distance (km) Brightness Sun altitude
Rises 20:45:29 0° 177° (S) 3,269 6.7 -4.8°
Reaches altitude 10° 20:47:55 10° 183° (S) 2,335 6.0 -5.2°
Maximum altitude 20:52:43 41° 252° (WSW) 1,118 4.6 -6.1°
Drops below altitude 10° 20:57:28 10° 320° (NW) 2,307 5.6 -6.9°
Sets 20:59:51 0° 327° (NNW) 3,225 6.2 -7.3°
